星链-35391(STARLINK-35391)

导读

STARLINK-35391是美国SpaceX星链(Starlink)卫星互联网项目的低轨卫星,于2025年11月22日发射入轨,属于星链全球覆盖阶段部署的新一代卫星。它延续了星链先进技术设计,配备激光星间链路与高效推进系统,旨在为全球用户提供高速低延迟互联网服务,补充完善星链星座覆盖,助力实现全球无缝宽带接入目标,目前已在轨参与星座组网运营。

基本信息
目录编号:
66616
目录名称:
STARLINK-35391
国际标识:
2025-270AE
轨道中心:
EARTH
卫星名称:
星链-35391
卫星全名:
星链-35391(STARLINK-35391)
卫星状态:
在轨 (已飞行286 天)
发射日期:
2025-11-22 UTC
国别 :
美国 (US)
星等 :
--
轨道信息
数据来源 国际轨道数据
星历时间: 2026-09-04T09:37:44+0800
12小时前
查看轨道信息
半长轴: 6861.181km
偏心率: 0.0001444
轨道倾角: 43.002°
近地点辐角 269.743°
升交点赤经 129.038°
平近点角 90.326°
近地点: 482.053km
远地点: 484.035km
周期: 94.267分钟
每日圈数: 15.27582
详细信息
固有亮度:
5
最大亮度:
2.5
卫星平台:
Starlink V1.0
覆盖范围:
全球
运营商:
太空探索技术公司
运营商所在国:
美国
制造商(研发单位):
太空探索技术公司
制造商所在国:
美国
使用方式:
暂无
卫星简介
Starlink 计划是 SpaceX 推出的全球卫星互联网项目,通过发射低轨道卫星,为全球尤其是偏远地区提供高速、低延迟的互联网服务。自 2019 年起,Starlink 已部署数千颗卫星,旨在缩小全球数字鸿沟,推动互联网普及。该项目还为军事、航空等行业提供通信支持,带来广泛经济效益。
2D轨道图
3D轨道图
轨道高度分析图
轨道倾角分析图
轨道综合分析图
查看轨道综合分析图
交会数据列表
事件ID 空间交会对象 最接近时刻(TCA) 交会距离 交会风险概率(CRP) 交会风险指数(CRI) 操作
CDM_260906-064106-661606-679221
2026-09-06T
06:41:13+0000
1.059 km
极远距离
1.042293E-5 中风险 0.55
CDM_260829-173105-717306-661621
OBJECT H (57173)
2026-08-29T
17:31:41+0000
2.935 km
极远距离
1.326523E-6 低风险 0.37
CDM_260906-050706-661606-679221
2026-09-06T
05:07:03+0000
2.414 km
极远距离
9.960179E-7 极低风险 0.35